Location: Armstrong
(40.9123°N, 82.0110°W)
Time: 03:08:45
(UTC+00:00)

USA 308 - Pass Details

Date: 29 October 2020
Orbit: 571 x 578 km, 54.0° (Epoch: 23 November)

Event Time Altitude Azimuth Distance (km) Brightness Sun altitude
Rises 23:31:39 0° 314° (NW) 2,786 7.0 -12.7°
Reaches altitude 10° 23:34:04 10° 323° (NW) 1,884 5.9 -13.2°
Maximum altitude 23:38:02 35° 30° (NNE) 925 3.7 -13.9°
Enters shadow 23:39:53 24° 78° (ENE) 1,203 3.9 -14.3°
